Location: Dappach
(48.9767°N, 9.6998°E)
Time: 21:32:43
(UTC+00:00)

EXPRESS MD2 - Pass Details

Date: 23 May 2024
Orbit: 262 x 3334 km, 49.9° (Epoch: 14 June)

Event Time Altitude Azimuth Distance (km) Brightness Sun altitude
Exits shadow 01:31:15 29° 186° (S) 736 3.5 -14.3°
Maximum altitude 01:32:07 37° 146° (SSE) 673 3.5 -14.2°
Drops below altitude 10° 01:36:00 10° 78° (ENE) 1,988 6.8 -13.9°
Sets 01:39:14 0° 72° (ENE) 3,372 8.2 -13.6°
